GFSSGP_250_rhum_000.txt.gz
RH
14 20 18 29 34 41 33 20 14 15 19 18 16 16 16 16 21 26 26 25 32 40 48 63 83 100 100 100 90 100 100 100 89 68 71 72 90 38 25 21 19 41 28 31 30 20 19 23 40
16 16 19 20 18 14 21 27 26 19 11 8 7 9 11 15 17 18 23 27 39 53 65 82 93 88 82 90 67 58 93 100 78 99 97 67 32 27 28 22 17 46 40 34 32 26 26 24 34
14 18 13 12 15 15 18 23 16 5 12 16 14 20 19 20 21 22 30 34 41 74 97 100 90 87 79 75 88 86 100 91 88 97 64 25 25 31 33 18 30 48 30 46 39 34 31 35 29
8 8 8 5 5 2 2 0 1 3 10 14 20 26 31 31 40 44 40 39 63 91 100 100 74 92 79 72 82 96 94 98 88 36 23 29 20 17 27 14 49 49 26 54 43 40 40 40 45
8 6 6 4 5 4 3 3 8 22 23 31 31 33 36 37 39 45 45 74 75 100 98 98 100 99 76 87 80 86 73 29 18 25 25 24 14 21 16 25 70 62 47 58 57 45 45 46 53
16 14 14 12 12 10 18 22 28 30 33 36 44 44 54 41 36 38 62 70 98 95 95 82 70 64 84 77 64 15 13 20 24 20 18 16 18 34 28 49 81 75 87 98 100 67 54 52 54
25 20 17 16 19 28 58 60 53 54 56 58 52 48 34 27 44 41 66 84 94 92 87 70 69 59 54 19 6 10 17 19 25 13 25 25 32 38 38 100 100 90 82 96 87 61 82 69 58
27 32 39 38 36 50 56 61 64 60 71 45 38 34 32 29 40 59 73 64 65 57 49 39 34 23 17 12 8 15 33 25 11 16 39 24 38 42 56 54 67 88 93 95 100 100 99 82 76
27 33 68 74 70 52 43 47 53 40 38 32 30 24 21 28 43 57 51 53 39 22 24 18 11 16 17 8 8 32 21 23 24 19 24 34 38 40 40 43 51 48 48 42 42 53 76 99 92
68 66 64 45 38 34 34 36 40 39 37 40 37 23 23 34 37 9 4 12 19 18 12 11 8 11 10 10 13 36 29 21 27 30 26 20 9 8 11 13 14 14 15 16 16 16 19 25 70
38 81 83 72 63 59 54 44 34 26 32 29 21 6 6 6 7 9 10 10 10 9 8 8 9 6 15 11 36 12 23 30 22 18 10 14 9 2 8 10 12 15 25 26 26 25 21 19 18
6 95 89 63 64 63 56 45 35 53 60 34 16 38 48 44 26 12 10 9 8 8 7 6 6 7 16 17 18 21 21 18 19 23 20 25 37 39 44 31 24 26 28 30 31 30 27 26 30
10 45 63 40 53 67 51 37 52 51 52 46 56 40 27 27 35 11 9 8 8 7 12 8 29 6 7 10 16 16 16 18 27 22 17 29 65 49 52 35 32 33 32 34 35 35 32 32 29
8 12 20 31 47 73 68 40 40 52 59 46 32 11 7 9 9 8 8 8 12 34 13 1 8 2 14 12 22 30 31 29 27 29 39 54 66 48 55 44 36 34 34 34 36 38 39 40 34
12 10 12 14 17 23 55 54 36 27 17 11 10 6 7 8 8 8 10 12 9 8 5 15 22 24 19 26 40 39 33 32 46 49 66 79 75 42 51 42 37 41 40 45 48 40 40 37 39
17 13 10 10 8 10 12 23 19 12 10 9 8 8 8 8 11 12 11 12 12 11 13 29 24 40 56 47 40 35 50 45 70 79 49 35 54 53 51 33 28 37 43 63 55 46 40 44 43
20 17 13 9 8 8 8 9 10 10 10 9 10 10 12 12 13 15 17 18 17 16 21 28 25 26 49 52 55 40 49 47 30 26 58 49 99 41 47 54 56 48 44 37 59 52 43 43 45
16 19 16 14 12 10 9 9 10 10 11 13 13 14 16 18 18 20 21 22 22 21 22 26 39 51 52 76 37 23 20 16 22 17 48 46 28 34 38 47 47 58 53 45 44 54 50 43 49
21 16 17 21 19 13 13 13 13 14 17 18 19 19 21 22 22 20 21 23 24 25 25 26 27 46 27 22 26 22 20 16 28 19 32 27 22 23 27 27 29 45 51 48 47 46 56 52 49
28 20 16 17 22 23 17 16 16 15 18 22 25 28 33 37 30 40 29 27 27 25 24 21 21 20 44 17 44 28 29 22 23 19 27 26 27 28 28 30 29 30 44 56 59 52 66 57 55
27 27 20 17 17 16 20 21 23 25 22 22 26 33 46 38 41 30 34 31 28 26 22 19 17 16 25 24 20 21 23 18 14 17 23 26 30 36 35 33 34 37 41 48 48 58 65 60 62
30 27 23 20 19 17 17 17 16 17 23 26 25 38 44 54 42 36 29 30 28 24 17 13 13 12 15 26 20 23 14 13 16 23 28 30 36 41 42 43 47 51 53 54 46 53 52 54 49
22 25 25 22 20 19 17 16 19 20 16 32 40 39 41 31 43 36 32 28 21 14 12 12 12 14 16 18 18 15 14 15 21 24 30 33 35 38 44 44 46 50 52 50 41 57 58 58 67
17 21 21 22 23 20 21 20 18 16 17 20 23 23 23 25 26 27 27 16 14 14 14 14 15 17 19 17 16 14 15 20 26 34 37 38 38 38 40 44 46 44 41 51 65 47 53 62 69
26 21 19 18 21 26 27 24 20 19 18 16 15 18 18 18 14 15 17 16 16 18 18 18 19 18 17 16 15 14 19 33 34 36 35 38 37 36 37 48 49 57 64 63 66 48 46 55 58
37 35 28 24 24 27 26 27 23 20 19 21 20 18 15 15 15 15 16 18 20 20 19 18 17 16 15 14 18 25 28 30 30 32 35 36 39 42 53 46 54 72 100 66 60 57 57 57 79
35 31 34 27 25 22 27 23 20 23 23 20 18 19 20 20 19 20 20 20 20 18 18 17 18 18 20 24 27 29 29 29 30 30 33 33 29 37 42 92 97 94 72 80 95 95 75 96 90
22 36 31 27 26 26 27 26 21 20 23 23 22 22 21 19 20 20 19 20 23 22 22 22 23 24 25 27 30 32 30 29 32 32 30 27 26 36 100 99 63 59 68 91 79 96 100 100 100
34 27 29 31 28 25 27 27 26 22 21 21 22 21 21 22 23 24 24 25 26 26 25 25 25 28 30 32 34 31 29 31 36 30 23 27 35 40 94 81 84 79 57 93 90 99 100 97 90
39 30 33 31 34 33 30 27 27 26 24 26 25 21 19 20 22 22 23 24 25 25 25 26 29 32 35 34 31 32 32 32 32 27 18 22 23 36 82 100 89 79 92 64 94 92 100 100 100

GFSSGP_250_rhum_003.txt.gz
RH
10 9 17 24 99 23 21 30 59 64 67 63 26 24 18 15 34 32 48 40 29 32 48 60 54 86 100 100 100 100 83 60 69 69 69 78 42 18 21 23 19 35 39 32 31 27 24 33 45
11 11 13 21 72 89 28 34 29 48 42 27 19 19 20 18 14 16 21 24 30 44 51 65 65 68 92 90 75 85 78 67 59 69 73 27 20 20 19 18 41 38 45 41 38 33 32 34 45
14 15 37 23 31 38 36 35 37 25 17 31 18 15 16 17 23 23 24 23 29 39 58 90 99 100 100 94 92 76 90 82 62 32 15 18 20 12 19 28 54 36 47 48 43 40 42 38 48
15 19 18 24 17 20 33 20 14 22 24 15 8 6 10 18 27 36 34 40 43 37 41 61 97 100 100 100 85 79 69 43 8 17 19 17 13 16 18 61 77 54 56 61 50 50 50 49 44
14 18 21 18 14 15 15 13 10 11 3 1 7 14 24 32 37 42 48 42 100 85 98 100 100 100 97 70 86 54 6 7 10 16 14 20 28 36 40 74 86 85 100 100 66 58 54 60 52
10 10 9 6 7 4 3 1 0 0 1 10 25 37 44 56 41 38 42 60 99 100 96 92 97 81 67 66 30 4 4 17 22 11 27 23 34 37 71 100 91 90 89 87 80 71 76 67 69
13 14 7 6 7 8 7 8 15 17 24 35 49 57 48 36 29 50 62 49 69 92 94 96 75 54 32 19 10 7 21 19 13 15 26 35 42 58 56 81 65 81 88 96 69 69 100 93 80
18 16 16 17 21 19 14 14 23 45 47 49 41 40 36 35 30 38 50 76 89 74 63 38 30 14 17 18 7 13 19 21 20 19 25 19 18 25 23 33 28 31 24 20 15 14 19 48 94
26 33 23 30 32 30 52 54 55 41 38 34 33 36 33 30 34 39 46 33 27 44 28 14 8 8 39 6 12 17 18 20 20 10 5 5 8 10 12 15 17 19 21 19 18 22 18 16 21
30 37 38 72 79 67 40 31 37 37 40 40 40 42 28 25 31 35 15 7 16 22 19 12 11 8 7 7 18 16 26 15 9 6 1 0 5 10 12 19 25 26 27 24 20 25 27 28 25
18 52 54 67 44 37 35 44 43 40 32 30 35 17 4 4 8 11 10 11 11 11 10 8 8 13 12 14 16 19 16 15 17 16 12 34 26 26 27 30 31 29 30 35 28 24 28 25 32
2 30 68 72 82 79 64 56 51 39 33 47 18 8 26 36 25 14 10 9 8 7 6 3 3 14 12 16 13 15 17 20 17 20 57 56 45 46 26 28 30 30 33 35 33 30 30 30 29
4 23 71 95 74 71 62 54 60 49 46 45 31 51 40 29 42 20 9 7 7 7 11 9 4 6 10 15 20 23 26 24 15 21 41 54 55 46 41 38 39 37 39 38 39 34 34 34 32
10 9 34 59 61 66 69 54 62 51 53 46 48 39 10 8 12 8 7 8 10 7 6 2 7 11 22 30 31 28 31 32 32 46 56 64 52 57 53 43 40 43 39 34 35 40 38 43 43
12 12 10 18 32 64 61 58 44 40 40 24 15 8 7 8 8 7 11 29 22 4 4 9 16 22 33 37 30 28 34 58 42 48 33 29 65 46 45 58 52 48 44 45 42 50 49 43 44
18 12 12 10 12 18 29 61 52 34 14 10 10 9 8 8 9 12 12 13 12 12 26 31 42 45 46 45 36 52 55 63 17 37 46 49 73 35 39 42 47 55 55 59 46 49 49 56 50
18 15 14 11 9 8 10 20 22 12 10 10 10 9 10 12 12 13 14 14 13 25 17 22 29 46 54 40 18 29 45 18 22 23 38 60 43 35 44 40 36 38 48 51 58 59 51 63 50
21 19 13 13 11 10 8 25 10 10 10 10 11 12 13 14 14 16 17 17 18 25 34 51 48 45 54 83 60 58 25 18 22 19 25 31 28 27 56 40 28 41 41 43 52 54 58 56 53
21 21 19 16 14 14 10 9 11 12 12 12 16 19 20 19 20 21 22 21 20 22 25 31 40 50 36 52 36 25 25 20 18 16 28 30 36 41 56 50 49 42 36 40 46 49 48 61 54
25 23 20 20 22 16 16 13 14 15 16 18 20 23 25 30 26 24 26 26 25 23 24 26 28 22 32 18 27 29 28 16 15 20 30 27 35 39 47 57 47 44 46 47 47 48 40 56 54
24 24 23 18 18 26 24 23 14 16 19 21 24 28 38 38 34 24 24 25 24 23 20 18 18 17 22 38 22 34 45 15 15 21 27 30 34 35 38 43 43 45 50 50 40 46 68 50 67
23 23 22 22 18 22 18 24 25 23 19 23 25 28 38 46 42 31 28 25 24 24 20 16 13 11 11 28 29 38 26 17 17 22 26 29 43 36 35 35 37 41 43 45 46 50 64 56 62
26 21 19 23 21 22 17 17 17 21 24 23 23 27 33 40 42 43 29 25 24 19 14 12 11 12 16 18 26 26 20 24 19 23 26 28 28 26 26 26 32 42 46 48 74 57 59 56 65
35 30 19 18 23 19 21 19 16 17 16 15 27 28 27 33 40 36 31 23 21 14 12 13 14 17 18 18 16 17 30 23 24 26 26 27 25 25 28 31 40 53 72 87 72 69 63 60 69
28 32 30 19 18 26 24 21 27 20 16 16 14 25 38 43 38 25 29 28 15 14 14 16 18 19 18 17 16 17 23 30 25 27 28 30 29 27 27 32 36 50 95 73 93 64 60 61 52
39 34 37 29 25 27 29 26 25 22 18 19 18 16 15 16 17 22 20 18 15 15 17 20 20 19 18 17 17 20 23 26 26 29 31 32 29 25 33 41 51 100 100 78 67 69 67 59 50
40 28 34 36 31 27 24 28 26 22 23 22 20 19 20 18 18 16 16 16 17 19 20 19 18 17 19 20 21 23 26 28 28 31 32 34 31 28 27 29 36 76 80 69 65 68 66 72 60
46 38 31 32 32 24 26 28 27 21 22 24 23 21 19 19 19 20 20 20 20 19 18 17 19 21 22 23 24 28 30 29 29 33 32 34 28 25 15 18 29 25 53 52 66 67 72 83 92
30 38 39 31 32 29 32 29 27 25 21 23 25 24 22 21 20 20 19 20 21 21 20 21 22 23 23 25 28 31 30 30 31 31 33 36 30 22 20 18 44 37 43 62 62 67 86 100 99
21 30 39 38 34 32 28 30 30 28 24 21 20 21 20 20 21 21 21 21 22 21 21 22 23 24 25 27 29 30 32 33 32 33 36 33 23 19 18 15 42 45 51 45 42 50 54 87 76

GFSSGP_250_rhum_006.txt.gz
RH
19 16 19 24 23 100 84 37 88 84 100 100 100 95 60 65 19 19 22 23 24 40 26 28 48 68 59 83 93 94 91 66 80 70 59 30 16 17 14 12 26 43 40 34 37 32 34 36 44
14 16 17 100 100 100 100 50 24 92 88 78 80 69 42 35 23 28 17 24 21 25 29 38 66 79 85 97 100 99 77 73 66 60 22 13 16 11 11 23 45 42 42 40 40 42 34 33 50
12 19 40 100 98 100 100 100 19 30 31 42 60 56 48 36 18 9 19 22 32 31 34 48 61 95 100 100 100 84 85 68 38 13 11 14 14 20 20 50 60 41 46 50 48 46 43 40 36
8 22 19 72 88 86 75 76 83 32 38 31 26 28 21 10 5 19 24 34 39 38 54 47 46 73 92 100 100 80 58 38 6 12 15 15 22 26 35 72 68 60 82 75 61 59 52 50 42
5 9 20 76 76 23 20 26 37 32 30 24 22 24 5 2 20 39 38 42 50 88 74 69 100 100 100 100 65 48 26 7 15 14 19 24 28 37 67 69 72 78 73 72 81 86 79 58 53
100 56 18 11 15 24 18 18 18 22 16 33 33 18 12 37 46 45 38 48 49 94 98 100 100 90 73 67 48 16 5 14 16 13 22 23 34 40 64 45 51 55 53 42 25 24 69 85 55
100 93 50 13 17 17 16 14 11 8 6 30 11 12 45 57 47 50 31 69 48 50 63 86 98 71 43 30 16 9 10 17 17 17 12 12 12 18 24 23 22 19 15 15 15 14 14 21 54
98 100 65 10 10 6 7 6 6 8 11 27 35 56 64 46 40 36 34 30 67 70 88 73 38 24 15 36 9 10 16 17 14 7 6 8 10 14 18 20 19 19 20 20 19 20 20 18 16
12 20 16 13 12 12 16 18 18 28 48 39 57 50 35 36 34 33 29 37 47 17 25 26 16 6 31 12 12 16 11 7 5 1 8 9 14 16 20 25 24 25 24 22 22 25 26 20 18
11 14 16 24 20 25 22 29 52 58 56 34 28 31 31 34 23 26 40 20 8 18 21 19 13 9 7 14 17 16 13 12 5 22 24 25 49 26 49 92 56 32 42 30 28 28 28 26 26
3 23 29 24 39 51 53 62 33 34 34 36 28 29 38 27 5 9 10 12 11 12 11 10 7 12 15 13 14 14 18 18 30 50 43 39 26 49 92 100 96 100 84 37 40 37 38 38 35
4 8 50 36 52 69 38 38 39 38 40 34 35 20 13 20 22 15 10 10 9 8 6 5 5 17 14 14 16 19 20 20 51 49 42 44 48 72 55 75 49 36 38 41 38 36 41 43 41
7 6 14 62 74 77 65 66 57 48 52 55 36 33 48 40 36 40 16 9 7 7 6 9 12 21 16 28 26 23 20 19 44 47 55 54 57 64 59 40 38 41 42 41 41 36 39 37 34
8 9 14 59 86 84 70 76 58 69 56 48 47 41 39 10 10 20 9 7 7 15 5 6 10 20 30 31 33 39 41 39 46 46 33 44 76 44 47 67 52 51 41 45 41 37 35 34 25
11 8 10 21 46 37 56 64 52 61 52 58 38 42 14 7 9 7 7 11 10 1 5 12 21 31 36 36 40 47 62 23 32 46 36 56 36 39 45 49 44 51 33 29 33 40 42 43 38
15 11 10 12 11 20 38 56 59 43 39 30 12 9 8 8 8 11 28 9 3 6 17 32 43 42 42 34 35 42 18 22 18 31 28 46 30 37 61 57 67 57 35 32 40 44 41 51 44
19 13 10 10 10 8 11 24 76 52 25 10 8 8 8 9 12 14 14 11 13 24 30 42 37 46 38 36 41 25 22 20 19 16 26 34 39 59 98 60 64 59 45 39 44 46 42 45 50
21 18 13 11 10 8 25 76 100 15 12 8 8 10 12 12 13 14 14 14 24 18 21 27 43 56 62 43 34 52 23 20 17 18 30 34 35 60 69 66 74 49 52 66 50 53 52 60 49
22 22 17 14 11 9 26 100 100 12 9 8 9 12 13 15 16 17 15 17 26 32 39 43 48 30 30 34 25 27 23 17 16 18 21 26 30 38 38 51 66 53 51 54 61 58 56 61 52
23 22 22 17 15 12 9 18 18 11 11 11 14 14 15 19 22 24 24 24 25 24 27 30 30 27 30 23 28 50 62 19 16 18 26 25 42 34 37 42 43 35 49 48 52 44 50 55 55
27 20 22 22 18 17 13 12 13 14 14 14 18 18 20 23 25 26 26 26 26 26 25 22 20 18 15 13 39 28 41 27 26 21 24 24 29 32 32 30 38 35 39 41 46 63 51 42 42
30 27 20 21 22 18 21 16 15 17 17 20 21 23 37 35 30 27 24 24 25 24 22 19 16 14 11 11 20 30 26 31 24 23 24 28 48 39 27 23 22 27 41 39 45 61 65 63 52
31 30 23 19 20 21 17 22 24 20 17 20 23 27 32 36 44 37 33 23 22 20 18 14 12 11 11 15 24 24 25 30 31 31 30 27 27 26 25 17 15 21 33 43 79 61 53 47 37
40 28 28 22 19 21 22 18 17 21 26 21 22 23 26 30 36 38 30 23 22 18 10 10 11 11 14 18 18 18 25 24 35 39 32 25 25 26 23 20 19 18 23 46 72 84 66 63 63
58 32 33 26 21 20 23 22 23 18 18 20 22 46 24 24 26 27 34 33 26 19 15 11 12 14 17 18 17 17 22 23 33 32 30 27 32 27 25 26 22 16 15 19 41 41 51 56 57
34 52 33 37 35 30 30 21 28 20 18 18 22 24 20 32 40 36 36 31 23 18 16 15 16 18 18 17 17 20 22 25 28 31 29 29 28 26 26 27 25 21 16 14 22 18 44 44 44
20 37 44 42 36 36 32 24 24 23 18 20 20 18 18 19 18 17 14 15 18 18 17 17 18 19 18 17 20 22 23 25 28 28 27 25 27 27 27 28 24 20 19 16 31 47 45 37 24
16 20 32 39 41 32 36 32 26 24 23 24 19 22 20 19 19 18 17 17 17 18 18 19 19 18 19 22 22 24 25 26 28 28 30 28 29 31 30 30 25 21 20 27 39 63 31 17 18
13 16 20 32 38 41 38 33 33 28 26 22 27 25 24 21 21 20 19 19 20 19 18 18 19 21 22 23 24 25 26 26 26 29 33 34 34 34 30 30 26 23 22 32 40 33 16 13 17
24 14 14 20 33 38 40 35 37 34 30 26 26 27 27 22 24 23 21 20 21 20 19 20 22 22 22 23 25 26 26 27 28 31 36 37 35 35 36 38 28 22 23 20 14 16 18 19 18

GFSSGP_250_rhum_009.txt.gz
RH
14 17 19 30 68 30 86 76 99 100 100 100 100 100 100 100 72 46 29 19 15 13 23 33 48 69 99 100 98 79 78 86 64 57 46 17 12 13 13 17 31 44 41 39 35 28 36 35 23
13 21 40 100 86 99 62 73 92 100 100 92 100 99 84 72 52 40 26 8 6 15 28 34 40 64 68 100 88 97 92 88 70 45 18 13 14 16 19 26 42 42 48 54 54 42 35 42 43
8 16 56 96 85 92 100 99 88 96 84 97 87 80 61 39 40 33 11 9 21 30 36 41 40 44 64 83 87 99 100 68 41 20 13 14 18 21 29 62 53 72 86 70 69 73 49 46 45
18 100 100 100 100 93 92 88 100 84 41 42 47 50 31 26 23 18 5 22 35 46 42 65 55 77 58 76 100 100 73 37 18 12 13 21 21 25 48 69 67 76 61 51 67 80 64 51 45
68 100 100 100 100 100 81 87 98 89 61 56 50 35 32 21 21 18 32 34 37 38 54 89 95 100 100 100 68 58 42 16 11 12 14 17 23 33 53 42 41 26 15 16 15 29 85 73 50
81 98 100 100 100 100 92 84 55 22 19 28 36 37 25 19 15 48 44 40 36 43 49 79 92 100 86 83 43 36 11 10 15 12 10 10 14 17 20 15 18 18 16 18 19 17 22 60 68
66 96 98 80 34 22 47 23 25 16 16 16 13 30 19 19 27 32 41 46 35 37 63 73 89 94 42 30 20 13 10 14 11 8 8 9 12 17 18 18 20 19 20 22 20 20 19 15 31
72 78 94 100 76 11 11 14 17 20 11 6 10 16 31 58 54 39 39 38 40 34 48 25 55 32 12 36 18 15 12 6 3 9 10 17 33 37 38 20 26 27 30 38 32 28 24 19 16
89 79 54 66 97 25 12 10 8 7 9 14 24 84 90 60 40 34 32 29 30 36 29 14 17 11 8 6 17 8 5 3 19 24 37 37 80 100 100 92 100 34 39 42 37 33 29 23 22
60 68 37 24 22 14 10 9 11 16 17 25 50 48 32 28 28 31 21 23 30 20 15 17 13 8 8 20 14 10 11 25 33 28 27 82 96 97 73 78 64 38 34 50 36 28 36 35 29
3 3 6 9 12 15 20 18 24 28 52 41 42 33 26 29 26 24 8 9 11 10 10 8 6 13 17 14 14 18 19 41 35 36 43 100 94 100 98 76 77 63 45 46 38 35 32 35 28
6 5 3 9 32 29 89 90 65 54 32 28 34 36 24 18 9 12 11 9 9 7 6 4 11 20 16 15 22 18 32 44 43 42 41 55 84 82 96 81 80 47 48 49 52 34 29 30 27
8 6 6 15 70 37 94 73 59 40 36 34 36 46 25 29 35 29 35 15 8 6 5 6 20 14 16 23 21 18 41 45 51 49 37 61 44 79 65 71 51 46 42 47 37 34 40 29 27
12 8 7 10 26 73 65 50 32 40 38 53 55 43 26 26 22 10 23 8 7 8 11 16 19 25 33 36 43 46 42 44 44 36 41 46 32 52 58 60 50 68 45 35 42 40 34 38 36
16 13 7 8 12 28 54 71 56 60 67 58 48 56 42 39 13 9 6 8 12 6 8 14 26 31 32 36 48 41 18 22 33 29 38 34 46 39 65 80 72 88 52 35 42 41 42 43 40
20 17 9 8 9 15 23 42 74 50 55 53 58 47 37 39 8 7 10 10 2 7 17 32 37 37 32 35 31 19 21 20 17 22 38 43 34 79 74 96 78 67 48 49 43 46 49 53 50
20 19 13 9 9 8 14 29 45 64 47 33 19 13 13 7 9 24 5 3 4 20 37 44 45 37 55 58 40 24 21 17 18 23 29 35 38 77 41 68 72 47 56 46 40 40 51 50 47
24 22 18 10 9 9 9 42 80 98 77 15 10 8 7 7 15 16 9 10 28 38 46 37 62 72 43 26 32 27 19 18 16 19 23 27 52 52 33 45 52 40 50 38 31 33 38 43 44
25 26 22 15 10 15 100 72 66 98 13 11 8 8 10 12 13 14 14 18 23 24 23 42 36 33 28 34 24 54 32 19 19 19 28 26 32 36 33 29 26 34 34 35 39 31 37 37 35
25 24 22 20 13 11 29 78 74 13 10 8 10 12 12 12 14 15 14 29 25 37 39 37 41 36 27 32 37 33 40 32 30 27 27 26 26 42 31 24 19 19 23 30 37 35 44 60 52
34 29 20 21 19 14 12 24 18 12 10 10 11 13 14 14 18 19 19 23 25 25 28 28 30 25 18 13 19 28 39 32 31 30 27 26 30 32 25 21 18 17 17 19 28 45 55 54 59
44 34 26 19 20 22 17 12 11 12 39 23 15 16 18 18 18 21 26 26 25 26 25 23 20 18 15 11 15 24 28 31 33 34 34 29 28 26 29 26 23 22 18 17 20 22 46 62 54
52 42 32 21 15 24 22 18 14 12 62 100 23 18 22 33 31 37 30 26 25 24 24 21 16 14 12 11 15 21 18 26 24 28 32 29 25 26 32 28 26 24 24 22 20 16 32 58 29
43 41 47 35 20 18 22 24 19 19 16 34 29 22 26 42 42 45 43 33 30 26 22 18 15 11 11 12 17 18 18 23 22 22 23 26 25 26 26 26 25 26 27 24 21 19 18 22 29
22 37 40 48 29 27 28 25 34 21 19 19 19 27 24 29 32 37 38 34 34 30 25 22 13 12 12 15 18 18 18 22 22 21 23 25 27 28 26 24 27 30 28 26 23 21 19 23 40
13 18 30 43 54 41 31 22 35 30 28 19 23 23 25 28 26 25 27 27 28 30 27 20 17 16 15 16 20 19 21 23 22 21 24 26 29 29 29 28 30 28 28 27 25 22 27 31 34
15 12 15 26 41 38 40 27 28 26 27 21 19 18 24 87 100 76 25 26 30 31 28 20 17 17 17 18 20 20 24 25 22 22 25 27 28 30 31 31 30 31 30 28 24 20 18 17 18
25 29 13 15 26 38 48 36 31 29 27 31 26 22 16 35 44 37 26 29 31 24 22 20 18 17 18 19 20 23 26 23 22 24 25 26 27 29 33 33 34 34 34 31 29 21 18 16 14
22 24 23 14 15 23 37 46 42 35 32 31 30 27 25 21 21 19 18 16 16 16 16 17 18 19 20 22 24 25 23 22 23 25 26 26 28 30 32 34 37 37 37 35 30 24 19 16 14
17 18 19 15 18 13 18 37 46 42 37 30 31 28 24 22 25 22 22 19 20 21 20 20 20 21 21 23 25 24 23 24 27 28 28 28 29 31 35 36 36 38 40 43 32 25 27 20 15

GFSSGP_250_rhum_015.txt.gz
RH
17 23 16 72 67 82 94 99 89 81 61 100 100 84 75 83 93 100 93 89 65 37 17 19 46 57 69 58 55 57 85 96 92 73 24 14 24 32 50 45 47 77 78 70 68 48 30 40 37
15 21 21 23 41 45 84 84 68 60 82 64 84 100 100 100 100 92 91 77 56 21 15 25 42 64 60 82 62 55 83 84 60 23 14 21 36 45 49 43 44 24 29 65 79 65 64 30 45
16 18 19 24 22 33 43 48 60 69 52 65 66 76 84 100 98 51 61 57 40 20 20 40 43 69 62 74 94 100 82 45 19 12 16 24 28 23 20 23 22 21 20 19 62 68 66 69 81
18 18 31 34 90 99 66 49 100 100 49 52 58 66 84 76 66 51 35 25 24 15 22 43 47 50 60 74 75 45 36 12 11 15 16 16 16 21 24 24 24 27 23 21 22 55 60 81 96
19 29 73 100 93 96 96 82 67 81 74 94 85 98 100 90 54 23 18 16 11 20 38 43 40 54 52 62 36 25 14 13 13 13 11 14 18 24 34 35 33 25 26 24 24 23 73 66 98
21 63 88 98 100 100 85 100 99 86 82 73 99 100 100 57 21 14 11 9 24 38 31 36 45 33 27 21 25 16 15 11 9 12 15 18 24 44 48 32 25 24 23 24 28 24 72 82 97
19 70 77 97 79 100 100 100 100 100 98 97 100 100 94 47 15 9 10 22 34 26 25 38 38 18 12 10 13 14 8 9 14 24 18 40 65 42 54 45 33 24 22 24 27 42 43 100 100
16 17 47 100 86 100 100 100 94 100 100 100 100 55 21 15 10 12 31 23 20 24 22 33 24 12 8 14 7 5 10 18 47 48 36 48 99 71 76 55 45 34 27 24 26 31 48 63 87
30 26 17 82 85 96 100 99 100 95 100 100 86 17 14 9 14 25 23 18 22 17 21 19 15 9 13 5 6 16 20 48 91 100 91 85 79 84 70 65 55 48 34 23 23 44 30 53 39
38 38 25 39 51 62 56 88 75 83 84 50 43 11 10 12 16 20 21 20 8 9 13 15 8 15 7 6 18 33 38 51 100 100 90 98 97 89 79 49 40 44 37 28 28 42 34 31 34
19 35 44 47 57 52 77 65 73 62 43 21 28 11 10 13 23 23 20 5 9 10 11 7 12 15 7 13 30 34 41 53 84 93 90 100 100 95 81 48 36 35 38 26 26 26 26 28 28
6 6 5 5 5 6 6 5 6 11 15 17 22 28 16 15 21 22 8 14 10 10 6 8 14 14 16 20 41 41 42 44 39 56 56 50 69 57 38 55 49 36 34 30 29 30 30 31 34
11 9 8 8 7 6 9 22 23 24 26 48 36 27 23 23 22 20 29 22 17 8 4 15 14 15 20 30 39 42 42 40 36 43 40 32 36 39 57 67 50 53 42 36 32 35 35 32 29
10 12 13 10 7 7 8 43 87 88 93 82 48 29 27 26 25 25 33 20 13 6 9 15 14 21 21 37 40 44 40 27 23 26 31 30 36 68 42 60 35 46 50 38 32 29 35 33 31
13 12 14 12 8 7 9 12 68 90 95 67 44 32 38 33 28 35 27 16 7 8 16 16 23 35 42 31 25 27 20 19 19 24 25 44 52 35 41 39 30 26 25 25 24 23 29 32 33
17 16 16 16 10 8 10 13 38 90 73 62 42 41 43 44 38 35 29 8 8 15 22 32 36 50 38 20 21 19 17 18 19 24 24 35 44 40 31 22 18 16 16 14 20 25 27 34 36
19 19 18 19 16 11 12 10 29 69 69 68 49 48 51 49 34 22 13 9 12 19 31 33 44 36 23 23 23 19 18 17 20 26 26 31 38 50 25 20 17 16 16 18 19 21 23 31 42
19 23 19 20 20 14 49 16 28 34 49 42 41 43 40 35 13 10 9 8 17 28 37 31 36 45 42 29 25 19 19 25 24 23 26 28 35 29 28 25 27 26 26 24 23 21 19 18 19
25 34 25 19 21 17 27 55 40 58 72 76 32 48 15 9 8 9 9 7 25 37 44 35 73 39 36 38 41 37 30 30 28 29 29 29 28 29 34 31 29 30 29 29 29 27 25 22 22
27 30 36 22 18 20 17 52 56 63 39 33 26 11 10 8 14 13 4 15 30 39 46 65 63 41 30 39 34 36 35 27 28 34 39 36 30 27 28 28 27 28 28 29 28 29 24 22 22
41 31 27 23 20 18 18 19 65 68 23 10 11 8 9 18 8 4 4 14 23 36 42 49 47 29 27 27 18 20 23 25 25 27 35 33 29 28 28 27 27 28 28 29 29 32 28 24 20
42 49 23 21 22 20 20 19 13 37 28 9 8 9 9 17 12 12 8 23 19 29 34 34 32 35 31 22 13 12 20 19 18 25 29 29 27 25 25 27 27 27 27 28 29 32 28 22 19
24 32 33 23 21 19 23 26 21 14 14 10 10 11 12 13 12 13 14 25 23 22 31 29 30 34 34 23 15 11 15 19 18 20 24 25 25 26 26 26 26 26 27 29 30 25 23 25 23
10 14 21 34 24 21 35 28 32 24 13 12 15 12 12 14 16 16 15 21 28 26 22 26 27 26 24 18 15 13 13 18 19 19 23 24 23 23 24 25 25 26 28 27 30 28 30 28 27
14 12 11 17 29 46 36 31 29 29 24 13 22 42 36 17 21 20 20 21 25 30 32 29 26 25 23 19 14 12 13 15 18 20 23 25 23 23 24 24 26 27 27 29 28 26 26 24 24
19 13 12 10 15 39 38 32 35 22 23 20 18 28 64 36 22 21 22 33 35 34 37 34 32 30 24 19 16 13 14 15 17 19 22 24 22 22 23 26 26 30 30 31 34 32 28 25 29
27 14 24 11 10 10 25 40 41 31 22 23 22 21 54 98 22 21 28 34 40 39 38 36 34 32 32 33 30 20 18 17 17 18 21 24 22 23 27 27 28 29 30 32 33 33 35 42 51
19 24 16 17 12 12 10 26 46 41 34 25 21 23 24 27 26 23 27 38 41 32 33 33 31 31 26 28 34 31 20 18 17 18 20 23 23 22 26 28 27 28 29 30 34 39 41 48 47
18 21 21 17 14 18 12 11 32 45 44 35 25 24 26 23 24 22 36 34 29 30 33 30 27 27 27 29 34 34 26 18 18 20 21 22 23 23 24 27 26 27 28 33 39 39 38 46 65
17 14 17 15 27 22 14 15 12 23 37 36 37 29 24 23 21 21 21 24 29 24 25 39 55 89 38 40 35 34 24 18 19 20 23 24 25 24 23 25 26 27 33 36 34 34 57 100 100